This is the latest recevied weather packets stored in our database for station/object K3JSE-2. If no packets are shown the sender has not sent any weather packets the latest 1 day(s).
| Time | Temp. | Humidity | Pressure | Rain* | Wind** | Luminosity | Snow |
|---|---|---|---|---|---|---|---|
| 1778020701 | 24.44° C | 39% | 1008.7 hPa | 0 mm | 1.34 m/s, 159° | - | - |
| 1778020428 | 24.44° C | 40% | 1008.7 hPa | 0 mm | 0.89 m/s, 314° | - | - |
| 1778020216 | 25° C | 39% | 1008.7 hPa | 0 mm | 1.34 m/s, 282° | - | - |
| 1778020168 | 25° C | 39% | 1008.7 hPa | 0 mm | 0.89 m/s, 280° | - | - |
| 1778019901 | 25° C | 39% | 1008.7 hPa | 0 mm | 1.79 m/s, 219° | - | - |
| 1778019628 | 25° C | 39% | 1008.7 hPa | 0 mm | 0 m/s | - | - |
| 1778019439 | 25° C | 39% | 1008.8 hPa | 0 mm | 0.89 m/s, 275° | - | - |
| 1778019346 | 25° C | 39% | 1008.7 hPa | 0 mm | 0 m/s | - | - |
| 1778019088 | 25° C | 38% | 1008.6 hPa | 0 mm | 0 m/s | - | - |
| 1778018806 | 25° C | 38% | 1008.7 hPa | 0 mm | 1.34 m/s, 277° | - | - |
| 1778018533 | 25° C | 37% | 1008.6 hPa | 0 mm | 1.79 m/s, 34° | - | - |
| 1778018263 | 25.56° C | 38% | 1008.5 hPa | 0 mm | 5.81 m/s, 266° | - | - |
| 1778018013 | 25.56° C | 37% | 1008.5 hPa | 0 mm | 0 m/s | - | - |
| 1778017748 | 25.56° C | 37% | 1008.5 hPa | 0 mm | 1.34 m/s, 283° | - | - |
| 1778017483 | 26.11° C | 37% | 1008.5 hPa | 0 mm | 0 m/s | - | - |
| 1778017354 | 26.11° C | 36% | 1008.5 hPa | 0 mm | 2.24 m/s, 273° | - | - |
| 1778017198 | 26.11° C | 37% | 1008.5 hPa | 0 mm | 1.34 m/s, 305° | - | - |
| 1778016898 | 26.11° C | 37% | 1008.5 hPa | 0 mm | 1.34 m/s, 263° | - | - |
| 1778016610 | 26.11° C | 37% | 1008.5 hPa | 0 mm | 3.13 m/s, 265° | - | - |
| 1778016603 | 26.11° C | 37% | 1008.5 hPa | 0 mm | 1.79 m/s, 299° | - | - |
| 1778016333 | 26.11° C | 37% | 1008.6 hPa | 0 mm | 0.89 m/s, 253° | - | - |
| 1778016065 | 26.11° C | 37% | 1008.5 hPa | 0 mm | 1.34 m/s, 261° | - | - |
| 1778015843 | 26.11° C | 36% | 1008.5 hPa | 0 mm | 1.79 m/s, 263° | - | - |
| 1778015761 | 26.11° C | 36% | 1008.3 hPa | 0 mm | 0.89 m/s, 171° | - | - |
| 1778015481 | 26.11° C | 36% | 1008.3 hPa | 0 mm | 0.89 m/s, 275° | - | - |
* Rain latest hour (hover to see other rain measurements)
** Current wind speed in m/s (hover to see current wind gust speed)